This demonstration page uses our WeatherBlox Daily Observations layout. Learn more.

Left ArrowRight Arrow

44.8408, -93.29828

Hourly Observations for March 31, 2022

Temp ( °F °C ) Dew Point ( °F °C ) Humidity (%) Winds ( mph kmh ) Pressure ( in mb ) Visibility ( mi km ) Precip ( " mm )
12:53 am 00:53 Cloudy 34 1.1 26 -3.3 73 73 N 15 24 29.54 1001 10 16 0.00 0.00
1:53 am 01:53 Cloudy 34 1.1 26 -3.3 73 73 N 17 28 29.52 1000 10 16 0.00 0.00
2:53 am 02:53 Cloudy 32 0 28 -2.2 85 85 N 15 24 29.51 999 10 16 0.00 0.00
3:53 am 03:53 Cloudy 32 0 27 -2.8 82 82 N 18 30 29.52 1000 10 16 0.00 0.00
4:10 am 04:10 Cloudy 32 0 28 -2.2 85 85 N 15 24 29.54 1000 7 11 0.00 0.00
4:14 am 04:14 Cloudy with Light Snow 32 0 28 -2.2 85 85 N 17 28 29.55 1001 7 11 0.00 0.00
4:21 am 04:21 Cloudy with Light Snow 32 0 28 -2.2 85 85 N 17 28 29.55 1001 7 11 0.00 0.00
4:28 am 04:28 Cloudy with Light Snow 32 0 27 -2.8 82 82 N 17 28 29.55 1001 7 11 0.00 0.00
4:38 am 04:38 Cloudy with Light Snow 32 0 27 -2.8 82 82 NNW 12 19 29.55 1001 7 11 0.00 0.00
4:49 am 04:49 Cloudy with Light Snow 30 -1 27 -3 86 86 NNW 12 19 29.57 1001 7 11 0.00 0.00
4:53 am 04:53 Cloudy with Light Snow 31 -0.6 27 -2.8 85 85 N 14 22 29.54 1000 7 11 0.00 0.00
5:53 am 05:53 Cloudy with Light Snow 31 -0.6 26 -3.3 82 82 NNW 14 22 29.56 1001 8 13 0.00 0.00
6:53 am 06:53 Cloudy with Light Snow 31 -0.6 24 -4.4 76 76 N 15 24 29.58 1002 9 14 0.00 0.00
7:16 am 07:16 Cloudy 31 -0.6 24 -4.4 76 76 NNW 15 24 29.62 1003 9 14 0.00 0.00
7:38 am 07:38 Cloudy 31 -0.6 24 -4.4 76 76 NNW 16 26 29.63 1003 10 16 0.00 0.00
7:48 am 07:48 Cloudy 30 -1 23 -5 75 75 N 20 31 29.63 1003 10 16 0.00 0.00
7:53 am 07:53 Cloudy 31 -0.6 23 -5 72 72 NNW 13 20 29.61 1003 10 16 0.00 0.00
8:53 am 08:53 Cloudy 31 -0.6 23 -5 72 72 NNW 18 30 29.63 1003 10 16 0.00 0.00
9:53 am 09:53 Cloudy 31 -0.6 22 -5.6 69 69 NNW 12 19 29.65 1004 10 16 0.00 0.00
10:05 am 10:05 Cloudy 31 -0.6 22 -5.6 69 69 N 18 30 29.68 1005 10 16 0.00 0.00
10:27 am 10:27 Cloudy 31 -0.6 21 -6.1 67 67 NNW 17 28 29.69 1005 10 16 0.00 0.00
10:53 am 10:53 Cloudy 31 -0.6 21 -6.1 67 67 N 17 28 29.67 1005 10 16 0.00 0.00
11:00 am 11:00 Cloudy 31 -0.6 20 -6.7 64 64 N 18 30 29.69 1005 10 16 0.00 0.00
11:53 am 11:53 Cloudy 31 -0.6 20 -6.7 64 64 N 16 26 29.68 1005 10 16 0.00 0.00
12:01 pm 12:01 Cloudy 31 -0.6 20 -6.7 64 64 NNW 14 22 29.71 1006 10 16 0.00 0.00
12:45 pm 12:45 Cloudy 30 -1.1 19 -7.2 64 64 NNW 16 26 29.71 1006 10 16 0.00 0.00
12:53 pm 12:53 Cloudy 30 -1.1 19 -7.2 64 64 N 15 24 29.70 1006 10 16 0.00 0.00
1:08 pm 13:08 Cloudy 30 -1.1 20 -6.7 66 66 NNW 15 24 29.72 1006 10 16 0.00 0.00
1:40 pm 13:40 Cloudy 31 -0.6 19 -7.2 61 61 NW 15 24 29.73 1007 10 16 0.00 0.00
1:53 pm 13:53 Cloudy 31 -0.6 19 -7.2 61 61 NNW 16 26 29.71 1006 10 16 0.00 0.00
2:53 pm 14:53 Cloudy 33 0.6 19 -7.2 56 56 N 16 26 29.71 1006 10 16 0.00 0.00
3:53 pm 15:53 Cloudy 33 0.6 20 -6.7 58 58 N 15 24 29.72 1006 10 16 0.00 0.00
4:53 pm 16:53 Cloudy 35 1.7 19 -7.2 52 52 N 12 19 29.73 1007 10 16 0.00 0.00
5:53 pm 17:53 Cloudy 35 1.7 19 -7.2 52 52 N 13 20 29.75 1007 10 16 0.00 0.00
6:53 pm 18:53 Cloudy 34 1.1 19 -7.2 54 54 NNE 10 17 29.77 1008 10 16 0.00 0.00
7:53 pm 19:53 Mostly Cloudy 34 1.1 19 -7.2 54 54 N 5 7 29.80 1009 10 16 0.00 0.00
8:53 pm 20:53 Partly Cloudy 32 0 19 -7.2 59 59 N 5 7 29.83 1010 10 16 0.00 0.00
9:53 pm 21:53 Mostly Clear 32 0 17 -8.3 54 54 WNW 3 6 29.85 1011 10 16 0.00 0.00
10:53 pm 22:53 Mostly Clear 30 -1.1 18 -7.8 61 61 Calm 29.87 1012 10 16 0.00 0.00
11:53 pm 23:53 Mostly Clear 28 -2.2 19 -7.2 69 69 Calm 29.90 1012 10 16 0.00 0.00

Powered by AerisWeather